[[{"header":{"parameterUnit":"m.s-1","parameterCategory":1,"la1":30.2991,"la2":30.254,"lo1":-89.0895,"lo2":-89.0444,"dy":0.0017,"dx":0.0017,"nx":28,"ny":28,"refTime":"2025-07-24T21:00:00:Z","depth":0,"parameterNumber":2,"parameterNumberName":"U-component_of_WINDS"},"data":[0,0,0,0,0,0,0,0,0,0,0,0,0,0,0,0,0,0,0,0,0,0,0,0,0,0,0,0,0,0,0,0,0,0,0,0,0,0,0,0,0,0,0,0,0,0,0,0,0,0,0,0,0,0,0,0,0,0,1.17,1.17,0,1.1736,1.1736,1.1737,1.1718,1.1717,1.1716,1.1716,1.1752,1.1754,1.1756,0,0,0,0,0,0,0,0,0,0,0,0,0,1.1613,1.1615,1.17,1.17,1.1701,1.1736,1.1736,1.1737,1.1718,1.1717,1.1716,1.1715,1.1752,1.1754,1.1756,0,0,0,0,0,0,0,0,0,0,0,0,0,1.165,1.1616,1.17,1.1696,1.1696,1.1736,1.1736,1.1737,1.1719,1.1717,1.1716,1.1715,1.1751,1.1754,1.1757,1.1802,0,0,1.1765,1.1766,0,0,0,0,0,0,0,0,1.1648,1.1654,1.1696,1.1696,1.1696,1.1721,1.1719,1.1759,1.1719,1.171,1.1715,1.1714,1.1743,1.1746,1.1756,1.1804,1.1806,1.1765,1.1767,1.1768,1.1769,0,0,0,0,0,0,0,1.1646,1.1652,1.1714,1.1697,1.1697,1.1692,1.1695,1.1727,1.1734,1.1711,1.1709,1.1714,1.1743,1.1754,1.1757,1.1806,1.1765,1.1768,1.1769,1.1771,1.1889,1.1891,0,0,0,0,0,0,1.1644,1.165,1.1713,1.1715,1.1668,1.1694,1.1698,1.1715,1.1734,1.1735,1.1715,1.1713,1.175,1.1754,1.1758,1.181,1.1768,1.1771,1.1772,1.1888,1.189,1.1891,0,0,0,0,0,0,1.1642,1.1649,1.1711,1.1682,1.169,1.1697,1.1716,1.1716,1.1727,1.1737,1.1738,1.1725,1.1749,1.1754,1.1791,1.1812,1.1772,1.1775,1.1886,1.1889,1.1891,1.1917,0,0,0,0,0,0,1.1639,1.1649,1.1667,1.1683,1.1691,1.1744,1.1717,1.1718,1.1732,1.1729,1.1747,1.1748,1.1748,1.1787,1.1793,1.1815,1.1777,1.1884,1.1887,1.189,1.1914,1.192,1.1925,0,0,0,0,0,1.1636,1.1674,1.1668,1.1676,1.1714,1.1745,1.175,1.1749,1.1734,1.1751,1.1757,1.1747,1.1809,1.179,1.1798,1.1821,1.1883,1.1886,1.189,1.1912,1.1919,1.1924,0,0,0,0,0,0,1.1661,1.1676,1.167,1.1713,1.1728,1.1742,1.1764,1.1757,1.1777,1.1774,1.1772,1.1776,1.1813,1.1821,1.18,1.1864,1.1843,1.1848,1.1857,1.1864,1.1869,1.1866,1.1779,0,0,0,0,0,1.1671,1.1696,1.1707,1.1745,1.1752,1.1757,1.1771,1.1768,1.1784,1.179,1.1799,1.1814,1.1836,1.1851,1.1872,1.1916,1.1918,1.1935,1.194,1.1944,1.1948,1.1968,1.1975,1.1902,1.1902,1.1902,0,0,1.1693,1.1704,1.172,1.175,1.1761,1.1785,1.1762,1.179,1.1807,1.1794,1.1828,1.1835,1.1851,1.1891,1.1909,1.1898,1.1968,1.1948,1.1951,1.1953,1.1973,1.1979,1.1986,1.1905,1.1904,1.1904,0,0,1.1745,1.1757,1.1787,1.1799,1.1815,1.1818,1.1825,1.184,1.1844,1.1878,1.1868,1.1888,1.1928,1.1939,1.195,1.2003,1.1993,1.201,1.2036,1.2056,1.2062,1.2067,1.2084,1.209,1.2014,1.2014,1.2014,0,1.177,1.1806,1.1804,1.1831,1.1844,1.1832,1.1862,1.1874,1.1897,1.1905,1.1893,1.194,1.1951,1.1991,1.2003,1.2014,1.202,1.2007,1.2062,1.2067,1.2071,1.2087,1.2093,1.2016,1.2015,1.2015,1.2015,0,1.1834,1.186,1.1882,1.1903,1.1919,1.1947,1.1949,1.1964,1.196,1.1964,1.1997,1.2009,1.2031,1.2041,1.2038,1.208,1.2073,1.2062,1.204,1.208,1.2094,1.2101,1.2018,1.2017,1.2017,1.2017,0,0,1.1903,1.1921,1.1929,1.1937,1.1954,1.1973,1.2001,1.2021,1.2033,1.205,1.2071,1.2103,1.2092,1.2104,1.2102,1.212,1.2158,1.2106,1.2106,1.2113,1.2202,1.2209,1.2216,1.2152,1.2154,1.2155,1.22,0,1.1954,1.2001,1.1999,1.2043,1.2064,1.2053,1.2076,1.2088,1.2092,1.211,1.2114,1.2136,1.2121,1.2128,1.2145,1.215,1.2175,1.2147,1.2171,1.2172,1.2165,1.2224,1.2232,1.2274,1.2206,1.2207,1.2207,0,1.2019,1.2036,1.2081,1.2092,1.2101,1.2122,1.214,1.2158,1.2171,1.2172,1.2184,1.2179,1.2205,1.2184,1.2219,1.2199,1.2209,1.2212,1.2214,1.2215,1.2191,1.2224,1.2288,1.2293,1.2217,1.2216,1.2215,0,1.2061,1.2095,1.2126,1.2134,1.2148,1.2162,1.2169,1.218,1.2192,1.2208,1.2215,1.2233,1.2243,1.2257,1.2256,1.2242,1.2291,1.227,1.2291,1.2291,1.2301,1.23,1.2364,1.231,1.231,1.231,1.231,0,1.2117,1.2144,1.2144,1.2163,1.2193,1.2191,1.222,1.2225,1.2235,1.2253,1.2246,1.2263,1.2262,1.2279,1.2279,1.2306,1.2311,1.2312,1.2311,1.2312,1.2311,1.2317,1.2313,1.2312,1.2311,1.2311,1.2311,0,1.2168,1.217,1.2202,1.2212,1.2215,1.2236,1.2245,1.2262,1.2264,1.2288,1.2293,1.2297,1.2316,1.2317,1.2341,1.234,1.2373,1.237,1.2368,1.2367,1.2386,1.2384,1.2455,1.2464,1.2406,1.2407,1.2407,0,1.2203,1.2223,1.2235,1.2246,1.2253,1.2273,1.2284,1.2282,1.2294,1.2309,1.2324,1.2343,1.2358,1.239,1.2394,1.2411,1.2407,1.2431,1.241,1.2409,1.2405,1.2403,1.2404,1.2435,1.2435,1.2436,1.2436,0,1.2263,1.2262,1.2279,1.2295,1.2308,1.2322,1.2334,1.2344,1.2343,1.2356,1.2376,1.2388,1.241,1.2428,1.2445,1.2451,1.2443,1.2443,1.2448,1.2448,1.2445,1.2445,1.2377,1.2441,1.2441,1.244,1.244,1.244,1.2305,1.2322,1.2332,1.235,1.2358,1.2369,1.2385,1.2389,1.2405,1.2423,1.2421,1.2442,1.2452,1.2473,1.248,1.2496,1.2488,1.2496,1.2498,1.2499,1.25,1.2444,1.2499,1.2499,1.2499,1.2499,1.2499,0,1.2362,1.2368,1.2385,1.2401,1.2415,1.2406,1.2418,1.243,1.2449,1.2459,1.2473,1.2495,1.2512,1.2517,1.2533,1.2545,1.2541,1.2549,1.2547,1.2548,1.2508,1.2501,1.2551,1.2551,1.2551,1.2551,1.2551,1.2551,1.2394,1.242,1.242,1.2451,1.2456,1.2476,1.2484,1.2493,1.2501,1.2525,1.2539,1.2542,1.2549,1.2565,1.258,1.2581,1.2586,1.2595,1.2594,1.2557,1.2551,1.2546,1.2539,1.2597,1.2597,1.2633,1.2633,1.2633]},{"header":{"parameterUnit":"m.s-1","parameterCategory":1,"la1":30.2991,"la2":30.254,"lo1":-89.0895,"lo2":-89.0444,"dy":0.0017,"dx":0.0017,"nx":28,"ny":28,"refTime":"2025-07-24T21:00:00:Z","depth":0,"parameterNumber":3,"parameterNumberName":"V-component_of_WINDS"},"data":[0,0,0,0,0,0,0,0,0,0,0,0,0,0,0,0,0,0,0,0,0,0,0,0,0,0,0,0,0,0,0,0,0,0,0,0,0,0,0,0,0,0,0,0,0,0,0,0,0,0,0,0,0,0,0,0,0,0,3.8996,3.8997,0,3.9132,3.9134,3.9135,3.9112,3.911,3.9108,3.9105,3.924,3.9246,3.9251,0,0,0,0,0,0,0,0,0,0,0,0,0,3.8709,3.8715,3.8995,3.8997,3.8999,3.9132,3.9134,3.9135,3.9113,3.911,3.9107,3.9104,3.9238,3.9245,3.9252,0,0,0,0,0,0,0,0,0,0,0,0,0,3.8838,3.8716,3.8995,3.9004,3.9006,3.9131,3.9134,3.9136,3.9113,3.911,3.9106,3.9103,3.9236,3.9244,3.9253,3.9377,0,0,3.9279,3.9283,0,0,0,0,0,0,0,0,3.8831,3.8849,3.9001,3.9003,3.9006,3.9102,3.9082,3.9217,3.9114,3.9072,3.9105,3.9101,3.9197,3.9208,3.9241,3.9383,3.9389,3.928,3.9285,3.9289,3.9292,0,0,0,0,0,0,0,3.8822,3.8843,3.9049,3.9003,3.9006,3.8999,3.9013,3.9107,3.9152,3.9076,3.9074,3.9091,3.9197,3.9233,3.9244,3.9391,3.928,3.9288,3.9293,3.9296,3.9639,3.9642,0,0,0,0,0,0,3.8811,3.8835,3.9045,3.9053,3.8908,3.9007,3.9023,3.9074,3.9151,3.916,3.9094,3.909,3.922,3.9234,3.9249,3.9397,3.9289,3.9297,3.9302,3.9635,3.9639,3.9644,0,0,0,0,0,0,3.8805,3.883,3.9039,3.8944,3.897,3.9015,3.9073,3.9079,3.9115,3.9165,3.9173,3.9123,3.9218,3.9237,3.9345,3.9402,3.9301,3.9309,3.963,3.9636,3.9642,3.9696,0,0,0,0,0,0,3.8797,3.8828,3.8878,3.8946,3.8975,3.9135,3.9077,3.9084,3.913,3.9126,3.9194,3.9202,3.9216,3.9332,3.9354,3.9412,3.9316,3.9625,3.9633,3.964,3.969,3.9703,3.9715,0,0,0,0,0,3.8787,3.8887,3.888,3.8906,3.9038,3.9139,3.9156,3.9172,3.9135,3.9184,3.9216,3.92,3.9392,3.9344,3.9367,3.9429,3.9622,3.9631,3.9639,3.9684,3.9701,3.9715,0,0,0,0,0,0,3.8823,3.8896,3.8889,3.9015,3.9071,3.9135,3.9197,3.9189,3.9256,3.9248,3.9264,3.9279,3.9389,3.942,3.9364,3.9552,3.9502,3.9516,3.9527,3.9544,3.9556,3.9546,3.9323,0,0,0,0,0,3.8846,3.8924,3.8982,3.9087,3.9116,3.9152,3.9196,3.9203,3.9261,3.9284,3.9324,3.938,3.9452,3.95,3.957,3.9694,3.9707,3.9748,3.9761,3.9771,3.9782,3.9848,3.9866,3.9672,3.9672,3.9672,0,0,3.8894,3.8943,3.8991,3.9096,3.914,3.9217,3.9172,3.9256,3.9313,3.9297,3.9401,3.9433,3.9495,3.9611,3.9664,3.9641,3.9839,3.9782,3.979,3.9796,3.9859,3.9877,3.9893,3.9678,3.9677,3.9676,0,0,3.9019,3.9066,3.9157,3.9202,3.927,3.9293,3.9315,3.938,3.9401,3.9506,3.9495,3.9562,3.9688,3.9732,3.9771,3.9912,3.9898,3.9934,4.0,4.0063,4.0078,4.0092,4.014,4.0157,3.9945,3.9946,3.9946,0,3.9069,3.9187,3.9204,3.929,3.9335,3.9325,3.9416,3.9459,3.9546,3.9576,3.9549,3.9705,3.9746,3.9872,3.9906,3.9939,3.9962,3.9926,4.0075,4.0089,4.0102,4.0148,4.0166,3.9949,3.9949,3.9948,3.9948,0,3.9244,3.9326,3.9391,3.9476,3.9529,3.9617,3.9645,3.9695,3.9698,3.9723,3.9829,3.9879,3.9957,3.9988,3.9991,4.0113,4.0096,4.0072,4.0021,4.0124,4.0167,4.0185,3.9955,3.9953,3.9952,3.9951,0,0,3.9396,3.9489,3.9512,3.955,3.9624,3.9686,3.9772,3.985,3.9893,3.9952,4.0023,4.0129,4.0107,4.0151,4.0159,4.0215,4.032,4.0184,4.0186,4.0206,4.0455,4.0471,4.0491,4.0313,4.0316,4.0319,4.0449,0,3.9527,3.9681,3.9698,3.9834,3.9908,3.99,3.9974,4.0026,4.0052,4.0116,4.0144,4.0218,4.0184,4.021,4.0266,4.0296,4.037,4.0287,4.0376,4.0379,4.0359,4.0514,4.0532,4.0653,4.0466,4.0469,4.0471,0,3.9701,3.9766,3.991,3.9972,4.0003,4.007,4.0142,4.0205,4.0263,4.0277,4.0326,4.0326,4.0412,4.036,4.0477,4.042,4.0457,4.0478,4.0483,4.049,4.043,4.0524,4.0692,4.0709,4.0498,4.0496,4.0494,0,3.9794,3.9919,4.002,4.0053,4.0128,4.0174,4.0208,4.0262,4.0307,4.0369,4.0398,4.047,4.0508,4.0562,4.058,4.0541,4.0696,4.0645,4.0708,4.0707,4.074,4.0737,4.0914,4.0767,4.0767,4.0767,4.0766,0,3.9938,4.0025,4.0063,4.0125,4.0222,4.024,4.0335,4.0366,4.0414,4.048,4.0477,4.0538,4.056,4.0625,4.0639,4.0733,4.0751,4.0763,4.0765,4.0762,4.076,4.0786,4.0777,4.0772,4.077,4.077,4.0769,0,4.0058,4.0088,4.0197,4.0259,4.0277,4.0345,4.0397,4.0456,4.048,4.0564,4.0584,4.0622,4.0698,4.0722,4.0813,4.0823,4.0931,4.0928,4.0912,4.0912,4.0973,4.0966,4.117,4.1197,4.1034,4.1036,4.1037,0,4.0147,4.0215,4.0284,4.0328,4.0364,4.0436,4.0482,4.0501,4.0549,4.0619,4.0669,4.0744,4.0806,4.0927,4.0961,4.103,4.1026,4.1093,4.1037,4.1031,4.1025,4.102,4.1025,4.1103,4.1105,4.1106,4.1107,0,4.0301,4.0311,4.0379,4.0451,4.0507,4.0564,4.062,4.0656,4.0683,4.0736,4.0815,4.0862,4.0955,4.1029,4.11,4.1131,4.1123,4.1125,4.1143,4.1139,4.1127,4.1132,4.0939,4.112,4.1119,4.1118,4.1117,4.1117,4.0407,4.0465,4.0523,4.0597,4.0641,4.0693,4.075,4.0782,4.0848,4.0926,4.0933,4.1017,4.107,4.1164,4.1199,4.1264,4.1244,4.1271,4.1277,4.1282,4.1286,4.1118,4.1277,4.1276,4.1276,4.1276,4.1276,0,4.0558,4.0595,4.0663,4.0741,4.0799,4.0788,4.0848,4.0897,4.0971,4.1023,4.1083,4.1171,4.1243,4.1283,4.1353,4.1397,4.1395,4.1414,4.141,4.1417,4.1301,4.1277,4.1415,4.1415,4.1415,4.1415,4.1415,4.1415,4.0644,4.0741,4.0759,4.0877,4.0912,4.0995,4.103,4.1077,4.1118,4.1217,4.1277,4.1303,4.1349,4.1423,4.1487,4.1496,4.1521,4.1543,4.155,4.144,4.1426,4.1412,4.139,4.1549,4.1549,4.1661,4.1662,4.1663]}]]